Location: *
(46.0770°N, 1.6444°E)
Time: 09:37:22
(UTC+00:00)

COSMOS 2428 - Pass Details

Date: 16 September 2019
Orbit: 846 x 856 km, 70.9° (Epoch: 14 October)

Event Time Altitude Azimuth Distance (km) Brightness Sun altitude
Rises 19:02:27 0° 334° (NNW) 3,417 6.5 -10.9°
Reaches altitude 10° 19:04:56 10° 337° (NNW) 2,477 5.7 -11.3°
Maximum altitude 19:10:37 71° 62° (ENE) 895 2.7 -12.2°
Enters shadow 19:16:11 10° 146° (SE) 2,438 4.6 -13.2°
